Location: Bois de la Silve
(44.4667°N, 6.7833°E)
Time: 03:10:41
(UTC+00:00)

NOSS 2-1 (C) - Pass Details

Date: 14 July 2020
Orbit: 443 x 1759 km, 63.3° (Epoch: 29 July)

Event Time Altitude Azimuth Distance (km) Brightness Sun altitude
Rises 00:25:48 0° 323° (NW) 3,047 7.7 -23.0°
Reaches altitude 10° 00:27:49 10° 325° (NW) 2,271 7.0 -23.0°
Maximum altitude 00:33:05 79° 52° (NE) 961 4.5 -22.7°
Enters shadow 00:39:09 16° 139° (SE) 2,673 6.5 -22.5°
